Weather History for KNQI - August, 2013

Change the Weather History Date:

Sunday, August 11, 2013

  Actual Average Record
Temperature  
Mean Temperature 86 °F -  
Max Temperature 96 °F 95 °F 102 °F (2011)
Min Temperature 78 °F 74 °F 72 °F (2000)
Cooling Degree Days 20    
Growing Degree Days 36 (Base 50)    
Moisture  
Dew Point 76 °F    
Average Humidity 78    
Maximum Humidity 100    
Minimum Humidity 51    
Precipitation  
Precipitation 0.03 in - - ()
Sea Level Pressure  
Sea Level Pressure 30.00 in    
Wind  
Wind Speed 5 mph (East)    
Max Wind Speed 22 mph    
Max Gust Speed 30 mph    
Visibility 8 miles    
Events Fog , Rain , Thunderstorm    
Averages and records for this station are not official NWS values.
T = Trace of Precipitation, MM = Missing Value Source: NWS Daily Summary

Daily Weather History Graph

Daily Weather History Graph

Search for Another Location

Airport or City:

Trip Planner

Search our weather history database for the weather conditions in past years. The results will help you decide how hot, cold, wet, or windy it might be!

Date:

Astronomy

Aug. 11, 2013 Rise Set
Actual Time 7:00 AM CDT 8:12 PM CDT
Civil Twilight 6:35 AM CDT 8:36 PM CDT
Nautical Twilight 6:06 AM CDT 9:06 PM CDT
Astronomical Twilight 5:35 AM CDT 9:36 PM CDT
Moon 11:17 AM CDT (8/11) 11:02 PM CDT (8/11)
Length of Visible Light 14h 01m
Length of Day
13h 12m
Waxing Crescent, 22% of the Moon is Illuminated
Aug 11
Waxing Crescent
Aug 14
First Quarter
Aug 20
Full
Aug 28
Last Quarter
Sep 5
New

Hourly Weather History & Observations

Time (CDT) Temp. Heat Index Dew Point Humidity Pressure Visibility Wind Dir Wind Speed Gust Speed Precip Events Conditions
12:56 AM 81.0 °F 89.2 °F 79.0 °F 94% 29.99 in 10.0 mi Calm Calm - N/A   Clear
1:39 AM 80.6 °F 88.1 °F 78.8 °F 94% 29.99 in 8.0 mi NE 3.5 mph - N/A   Mostly Cloudy
1:46 AM 80.6 °F 88.1 °F 78.8 °F 94% 29.99 in 8.0 mi Calm Calm - N/A   Scattered Clouds
1:56 AM 80.1 °F 86.4 °F 78.1 °F 94% 29.98 in 7.0 mi NE 3.5 mph - N/A   Partly Cloudy
2:56 AM 79.0 °F - 78.1 °F 97% 29.98 in 9.0 mi Calm Calm - N/A   Clear
3:56 AM 79.0 °F - 77.0 °F 94% 29.98 in 8.0 mi Calm Calm - N/A   Clear
4:56 AM 78.1 °F - 77.0 °F 96% 29.98 in 7.0 mi NNE 4.6 mph - N/A   Mostly Cloudy
5:25 AM 78.8 °F - 77.0 °F 94% 29.99 in 8.0 mi NNE 4.6 mph - N/A   Scattered Clouds
5:56 AM 79.0 °F - 78.1 °F 97% 29.98 in 6.0 mi North 3.5 mph - N/A   Mostly Cloudy
6:15 AM 78.8 °F - 78.8 °F 100% 30.00 in 5.0 mi North 3.5 mph - N/A   Scattered Clouds
6:39 AM 78.8 °F - 77.0 °F 94% 30.00 in 6.0 mi NNW 4.6 mph - N/A   Scattered Clouds
6:56 AM 79.0 °F - 78.1 °F 97% 29.99 in 5.0 mi NNW 3.5 mph - N/A   Mostly Cloudy
7:56 AM 80.1 °F 86.4 °F 78.1 °F 94% 30.01 in 5.0 mi Calm Calm - N/A   Clear
8:56 AM 82.9 °F 94.8 °F 80.1 °F 91% 30.01 in 10.0 mi North 4.6 mph - 0.00 in Rain Light Rain
9:48 AM 87.8 °F 102.5 °F 78.8 °F 75% 30.03 in 10.0 mi Variable 3.5 mph - 0.00 in   Scattered Clouds
9:56 AM 89.1 °F 103.2 °F 78.1 °F 70% 30.02 in 10.0 mi Variable 6.9 mph - 0.00 in   Mostly Cloudy
10:04 AM 87.8 °F 102.5 °F 78.8 °F 75% 30.03 in 10.0 mi East 3.5 mph - N/A   Partly Cloudy
10:27 AM 91.4 °F 102.5 °F 75.2 °F 59% 30.03 in 10.0 mi Variable 3.5 mph - N/A   Mostly Cloudy
10:56 AM 91.9 °F 103.9 °F 75.9 °F 59% 30.02 in 10.0 mi Calm Calm - N/A   Mostly Cloudy
11:03 AM 91.4 °F 102.5 °F 75.2 °F 59% 30.03 in 10.0 mi NE 3.5 mph - N/A   Partly Cloudy
11:56 AM 93.9 °F 105.4 °F 75.0 °F 54% 30.00 in 10.0 mi NNE 8.1 mph - N/A   Scattered Clouds
12:56 PM 93.9 °F 103.4 °F 73.0 °F 51% 29.98 in 10.0 mi Variable 4.6 mph - N/A   Mostly Cloudy
1:12 PM 82.4 °F 89.5 °F 75.2 °F 79% 30.00 in 1.8 mi NNE 13.8 mph 25.3 mph 0.00 in Rain Heavy Rain
1:19 PM 84.2 °F 92.3 °F 75.2 °F 74% 30.01 in 3.0 mi SSE 10.4 mph - N/A Rain Light Rain
1:44 PM 82.4 °F 90.9 °F 77.0 °F 84% 30.01 in 10.0 mi SSE 15.0 mph 19.6 mph N/A Thunderstorm Thunderstorm
1:56 PM 80.1 °F 85.1 °F 75.0 °F 85% 30.00 in 1.2 mi SSE 10.4 mph - N/A Rain Heavy Rain
2:06 PM 80.6 °F 85.4 °F 73.4 °F 79% 30.00 in 0.8 mi NE 5.8 mph 20.7 mph N/A Rain Heavy Rain
2:16 PM 78.8 °F - 75.2 °F 89% 30.00 in 0.5 mi Variable 4.6 mph - N/A Fog , Rain Heavy Rain
2:25 PM 82.4 °F 90.9 °F 77.0 °F 84% 29.99 in 3.0 mi NW 3.5 mph - N/A Rain Light Rain
2:56 PM 88.0 °F 101.3 °F 78.1 °F 72% 29.98 in 10.0 mi South 5.8 mph - N/A   Clear
3:41 PM 89.6 °F 102.2 °F 77.0 °F 66% 29.98 in 10.0 mi SE 21.9 mph 29.9 mph N/A Thunderstorm Thunderstorm
3:56 PM 91.0 °F 102.9 °F 75.9 °F 61% 29.98 in 10.0 mi SE 18.4 mph 26.5 mph N/A   Clear
4:36 PM 91.4 °F 100.1 °F 73.4 °F 55% 29.99 in 10.0 mi SE 17.3 mph 24.2 mph 0.01 in Thunderstorm Thunderstorm
4:52 PM 93.2 °F 102.4 °F 73.4 °F 52% 29.97 in 10.0 mi SE 18.4 mph 23.0 mph 0.01 in   Clear
4:56 PM 91.9 °F 100.7 °F 73.0 °F 54% 29.96 in 10.0 mi SE 17.3 mph 23.0 mph 0.01 in   Mostly Cloudy
5:56 PM 89.1 °F 98.0 °F 73.9 °F 61% 29.96 in 10.0 mi ESE 10.4 mph - N/A   Mostly Cloudy
6:56 PM 88.0 °F 95.6 °F 73.0 °F 61% 29.96 in 10.0 mi SE 13.8 mph - N/A   Mostly Cloudy
7:56 PM 82.9 °F 88.0 °F 72.0 °F 69% 29.98 in 10.0 mi SE 10.4 mph - N/A   Mostly Cloudy
8:56 PM 81.0 °F 85.2 °F 72.0 °F 74% 29.99 in 10.0 mi SE 3.5 mph - N/A   Mostly Cloudy
9:56 PM 80.1 °F 84.2 °F 73.0 °F 79% 30.01 in 10.0 mi ESE 5.8 mph - N/A   Partly Cloudy
10:56 PM 78.1 °F - 73.9 °F 87% 30.02 in 10.0 mi ESE 3.5 mph - 0.01 in   Clear
11:56 PM 78.1 °F - 73.9 °F 87% 30.02 in 10.0 mi SE 6.9 mph - 0.01 in   Clear